Regional Weather Roundup
Issued by NWS

Home | Current Version | Previous Version | Graphics & Text | Print | Product List | Glossary On
Versions: 1 2 3 4 5 6 7 8 9 10 11 12 13 14 15 16 17 18 19 20 21 22 23 24 25 26 27 28 29 30 31 32 33 34 35 36 37 38 39 40 41 42 43 44 45 46 47 48 49 50
110
ASUS43 KFSD 082110
RWRSD

WEATHER ROUNDUP FOR SOUTH DAKOTA
NATIONAL WEATHER SERVICE SIOUX FALLS SD
300 PM CST MON FEB 08 2016

NOTE: "FAIR" INDICATES FEW OR NO CLOUDS BELOW 12,000 FEET WITH NO
SIGNIFICANT WEATHER AND/OR OBSTRUCTIONS TO VISIBILITY.


SDZ001>005-009-010-012>017-082200-
NORTHWEST AND NORTH CENTRAL SOUTH DAKOTA

CITY           SKY/WX    TMP DP  RH WIND       PRES   REMARKS
BUFFALO          N/A     38   8  29 NW23G30   30.20F
FAITH            N/A     37  10  32 NW24G32   30.22F
MOBRIDGE       PTSUNNY   37  19  48 NW22G32   30.19S
$$

SDZ012>016-024>037-041>051-057-063-072>074-082200-
SOUTHWEST AND SOUTH CENTRAL SOUTH DAKOTA

CITY           SKY/WX    TMP DP  RH WIND       PRES   REMARKS
RAPID CTY ARPT CLOUDY    42   9  25 N26G33    30.25F
PIERRE         CLOUDY    36  16  44 NW25      30.22F
CUSTER         CLOUDY    37  20  50 N14G24    30.22F
ELLSWORTH AFB  CLOUDY    41   9  26 NW28G35   30.24F
PHILIP         CLOUDY    40  15  36 NW18G26   30.26F
PINE RIDGE     CLOUDY    39   9  29 NW13      30.29F
SPEARFISH      FAIR      37  12  35 W16G22    30.28F
WINNER         FAIR      36  17  46 NW26G37   30.22F
$$

SDZ004>011-016>023-039-040-082200-
NORTHEAST SOUTH DAKOTA

CITY           SKY/WX    TMP DP  RH WIND       PRES   REMARKS
ABERDEEN       SUNNY     33  10  38 N26G37    30.15F WCI  20
WATERTOWN      CLOUDY    21  11  65 N30G38    30.08S WCI   3
BROOKINGS      FLURRIES  21  14  74 NW28G36   30.06R WCI   3
SISSETON         N/A     20  12  71 N31G39    30.13R WCI   1
$$

SDZ017-020-022-023-036>040-048>070-082200-
SOUTHEAST SOUTH DAKOTA

CITY           SKY/WX    TMP DP  RH WIND       PRES   REMARKS
SIOUX FALLS    PTSUNNY   24  13  62 NW29G47   30.09S WCI   7
HURON          CLOUDY    32  13  45 N26G38    30.15F WCI  18
CHAMBERLAIN    PTSUNNY   34  19  54 NW28G35   30.20F WCI  20
MITCHELL       CLOUDY    33  18  53 NW24G32   30.16F WCI  20
YANKTON        SUNNY    N/A N/A N/A NW30G39   30.11F
$$

ABBREVIATIONS USED IN REMARKS
   TC - TEMPERATURE IN CELSIUS
  WCI - WIND CHILL INDEX
   HX - HEAT INDEX
  VSB - VISIBILITY





USA.gov is the U.S. government's official web portal to all federal, state and local government web resources and services.